Weather History for KFSD - August, 2013

Change the Weather History Date:

Monday, August 12, 2013

  Actual Average Record
Temperature  
Mean Temperature 68 °F 72 °F  
Max Temperature 79 °F 83 °F 97 °F (1971)
Min Temperature 57 °F 61 °F 44 °F (1964)
Degree Days  
Heating Degree Days 0 0  
Month to date heating degree days 4 0  
Since 1 June heating degree days 92 59  
Since 1 July heating degree days 23 8  
Cooling Degree Days 3 7  
Month to date cooling degree days 39 90  
Year to date cooling degree days 466 517  
Since 1 June cooling degree days 424 481  
Growing Degree Days 17 (Base 50)    
Moisture  
Dew Point 59 °F    
Average Humidity 77    
Maximum Humidity 100    
Minimum Humidity 54    
Precipitation  
Precipitation 0.00 in 0.10 in 1.08 in (1905)
Month to date precipitation 2.42 1.21  
Year to date precipitation 19.61 17.55  
Snow  
Snow 0.00 in 0.00 in 0.00 in ()
Month to date snowfall 0.0 0.0  
Since 1 June snowfall 0.0 0.0  
Since 1 July snowfall 0.0 0.0  
Snow Depth 0.00 in    
Sea Level Pressure  
Sea Level Pressure 30.08 in    
Wind  
Wind Speed 3 mph (NNE)    
Max Wind Speed 12 mph    
Max Gust Speed 13 mph    
Visibility 9 miles    
Events      
T = Trace of Precipitation, MM = Missing Value Source: NWS Daily Summary

Daily Weather History Graph

Daily Weather History Graph

Search for Another Location

Airport or City:

Trip Planner

Search our weather history database for the weather conditions in past years. The results will help you decide how hot, cold, wet, or windy it might be!

Date:

Astronomy

Aug. 12, 2013 Rise Set
Actual Time 6:28 AM CDT 8:34 PM CDT
Civil Twilight 5:57 AM CDT 9:05 PM CDT
Nautical Twilight 5:18 AM CDT 9:44 PM CDT
Astronomical Twilight 4:36 AM CDT 10:26 PM CDT
Moon 12:33 PM CDT (8/12) 11:14 PM CDT (8/12)
Length of Visible Light 15h 08m
Length of Day
14h 05m
Waxing Crescent, 31% of the Moon is Illuminated
Aug 12
Waxing Crescent
Aug 14
First Quarter
Aug 20
Full
Aug 28
Last Quarter
Sep 5
New

Hourly Weather History & Observations

Time (CDT) Temp. Dew Point Humidity Pressure Visibility Wind Dir Wind Speed Gust Speed Precip Events Conditions
12:56 AM 62.1 °F 61.0 °F 96% 30.06 in 7.0 mi Calm Calm - N/A   Clear
1:56 AM 61.0 °F 60.1 °F 97% 30.06 in 8.0 mi Calm Calm - N/A   Clear
2:56 AM 60.1 °F 59.0 °F 96% 30.05 in 9.0 mi Calm Calm - N/A   Clear
3:56 AM 60.1 °F 59.0 °F 96% 30.06 in 7.0 mi NE 3.5 mph - N/A   Clear
4:56 AM 57.9 °F 57.0 °F 97% 30.05 in 7.0 mi Calm Calm - N/A   Clear
5:56 AM 59.0 °F 57.9 °F 96% 30.06 in 9.0 mi NNE 5.8 mph - N/A   Scattered Clouds
6:56 AM 57.9 °F 55.9 °F 93% 30.06 in 10.0 mi NNE 5.8 mph - N/A   Partly Cloudy
7:56 AM 61.0 °F 57.9 °F 90% 30.08 in 10.0 mi Calm Calm - N/A   Partly Cloudy
8:56 AM 66.0 °F 57.9 °F 75% 30.09 in 10.0 mi NNW 3.5 mph - N/A   Partly Cloudy
9:56 AM 70.0 °F 59.0 °F 68% 30.10 in 10.0 mi Calm Calm - N/A   Partly Cloudy
10:56 AM 72.0 °F 59.0 °F 64% 30.11 in 10.0 mi Calm Calm - N/A   Scattered Clouds
11:56 AM 73.9 °F 61.0 °F 64% 30.10 in 10.0 mi North 4.6 mph - N/A   Mostly Cloudy
12:56 PM 75.0 °F 59.0 °F 57% 30.10 in 10.0 mi Calm Calm - N/A   Mostly Cloudy
1:56 PM 75.9 °F 60.1 °F 58% 30.09 in 10.0 mi Calm Calm - N/A   Mostly Cloudy
2:46 PM 77.0 °F 62.6 °F 61% 30.10 in 10.0 mi Variable 5.8 mph - N/A   Scattered Clouds
2:56 PM 77.0 °F 61.0 °F 58% 30.08 in 10.0 mi NNW 6.9 mph - N/A   Mostly Cloudy
3:56 PM 75.0 °F 61.0 °F 62% 30.07 in 10.0 mi NNE 6.9 mph - N/A   Mostly Cloudy
4:56 PM 75.0 °F 61.0 °F 62% 30.07 in 10.0 mi NE 6.9 mph - N/A   Mostly Cloudy
5:56 PM 75.0 °F 57.9 °F 55% 30.06 in 10.0 mi NNE 8.1 mph - N/A   Mostly Cloudy
6:56 PM 73.9 °F 60.1 °F 62% 30.06 in 10.0 mi ENE 8.1 mph - N/A   Mostly Cloudy
7:56 PM 70.0 °F 57.0 °F 63% 30.07 in 10.0 mi NE 8.1 mph - N/A   Mostly Cloudy
8:56 PM 64.0 °F 57.9 °F 80% 30.09 in 10.0 mi NNE 3.5 mph - N/A   Mostly Cloudy
9:56 PM 64.0 °F 57.9 °F 80% 30.10 in 10.0 mi NNE 3.5 mph - N/A   Mostly Cloudy
10:56 PM 62.1 °F 57.0 °F 84% 30.11 in 10.0 mi Calm Calm - N/A   Scattered Clouds
11:56 PM 59.0 °F 55.9 °F 90% 30.12 in 10.0 mi Calm Calm - N/A   Scattered Clouds